Tracking 34352 objects as of 8-Jun-2026
HD Live streaming from Space Station
objects crossing your sky now

THORAD AGENA D DEB

Track THORAD AGENA D DEB now!
10-day predictions


NORAD ID: 4855
Int'l Code: 1970-025EK
Perigee: 977.0 km
Apogee: 1,002.0 km
Inclination: 100.0 °
Period: 104.7 minutes
Semi major axis: 7360 km
RCS: 0.055 m2 (small)
Launch date: April 8, 1970
Source: United States (US)
Launch site: AIR FORCE WESTERN TEST RANGE (AFWTR)

Note: This is SATELLITE DEBRIS
Your satellite tracking list
Your tracking list is empty




NASA's NSSDC Master Catalog

Two Line Element Set (TLE):
1  4855U 70025EK  26157.10105418  .00000633  00000-0  71562-3 0  9993
2  4855  99.9511 109.8763 0016927  83.3775 339.4815 13.74809116795453
Source of the keplerian elements: AFSPC